sat.trackr.live / text

‹ back to catalog

STARLINK-5777

NORAD 56027 · 2023-042AT

PAYLOAD ACTIVE UNKNOWN

§ Identity

Operator
Country
US
Launch date
2023-03-24
Launch site
AFETR
Launch vehicle
Mass (kg)
RCS (m²)

Purposes: comms

External: N2YO · Heavens-Above · Gunter

§ Orbital elements

Epoch: 2026-05-24T22:52:57.876960Z

Period
94.27 min
Inclination
43.0042°
Eccentricity
0.0001246
Mean motion
15.27575558 rev/d
Perigee alt
482.2 km
Apogee alt
483.9 km
Semi-major
6,861.2 km
B*
4.5704e-6
RAAN
334.1353°
Arg perigee
267.1117°
Mean anomaly
92.9593°
Rev number
17,470

§ Raw data

STARLINK-57771 56027U 23042AT  26144.95344765 -.00000136  00000+0  45704-5 0  99962 56027  43.0042 334.1353 0001246 267.1117  92.9593 15.27575558174701

JSON: /api/v1/satellites/56027 · /tle

For live sub-satellite position, see the globe view (requires WebGL).

§ Visibility from observer

Set your observer location to see the next 7 days of passes ≥ 10°. The values pass through the URL so the page stays shareable.

No JS? Fill the form by hand. The geolocation button needs JavaScript.